Terug naar catalogus

SL-14 DEB

ActiefPO
NORAD 45334·DEBRIS·🇷🇺 Russia

Gelanceerd Aug 15, 1991 vanaf Plesetsk Cosmodrome

Loading…

Volgende Passages (komende 24 uur)

TLE

VersSource: Space-Track

Epoch: Sep 13, 2026, 03:16 UTC

1 45334U 91056BY  26256.13664928  .00000176  00000-0  36361-3 0  9996
2 45334  82.5547  49.9164 0046810 118.7849 241.7992 13.26747208317096

Volg SL-14 DEB in realtime met AllMySat

Download on the App Store